DLH7YF EDDM-EPWA

Flight info

Callsign DLH7YF
Flight time 1h 6m
Altitude 35000
Route BIBAG2Q BIBAG Y133 BEPAS DCT LEGAZ DCT LAGAR DCT OKENO DCT GOGUS DCT AGAVA
Aircraft A319/M-SDE2E3FGIJ1LORWXYZ/HB1

Departure

Time 2026-05-06 13:50
Airport Munich Airport (EDDM)

Arrival

Time 2026-05-06 14:57
Airport Warsaw Chopin Airport (EPWA)
Time Latitude Longitude Altitude Speed Heading
2026-05-06 13:31 48.35498 11.79295 1482 ft 0 kts 263°
2026-05-06 13:37 48.35500 11.79325 1473 ft 4 kts 263°
2026-05-06 13:37 48.35503 11.79365 1471 ft 4 kts 263°
2026-05-06 13:38 48.35506 11.79397 1475 ft 4 kts 253°
2026-05-06 13:38 48.35518 11.79430 1471 ft 4 kts 212°
2026-05-06 13:38 48.35540 11.79439 1483 ft 3 kts 173°
2026-05-06 13:38 48.35555 11.79436 1474 ft 0 kts 173°
2026-05-06 13:39 48.35556 11.79436 1474 ft 0 kts 173°
2026-05-06 13:41 48.35555 11.79436 1474 ft 0 kts 173°
2026-05-06 13:41 48.35546 11.79439 1473 ft 2 kts 172°
2026-05-06 13:41 48.35490 11.79448 1480 ft 14 kts 174°
2026-05-06 13:42 48.35387 11.79465 1482 ft 16 kts 174°
2026-05-06 13:42 48.35262 11.79486 1483 ft 19 kts 174°
2026-05-06 13:42 48.35122 11.79510 1480 ft 21 kts 173°
2026-05-06 13:42 48.34974 11.79537 1473 ft 21 kts 174°
2026-05-06 13:43 48.34849 11.79559 1477 ft 17 kts 175°
2026-05-06 13:43 48.34782 11.79445 1475 ft 18 kts 263°
2026-05-06 13:43 48.34768 11.79255 1485 ft 19 kts 263°
2026-05-06 13:43 48.34753 11.79048 1479 ft 21 kts 263°
2026-05-06 13:44 48.34735 11.78814 1483 ft 26 kts 263°
2026-05-06 13:44 48.34712 11.78517 1485 ft 30 kts 263°
2026-05-06 13:44 48.34688 11.78207 1485 ft 30 kts 263°
2026-05-06 13:44 48.34663 11.77902 1485 ft 30 kts 263°
2026-05-06 13:45 48.34641 11.77609 1485 ft 29 kts 263°
2026-05-06 13:45 48.34596 11.77001 1485 ft 30 kts 263°
2026-05-06 13:45 48.34571 11.76685 1485 ft 29 kts 263°
2026-05-06 13:46 48.34546 11.76376 1485 ft 30 kts 263°
2026-05-06 13:46 48.34524 11.76075 1485 ft 29 kts 263°
2026-05-06 13:46 48.34504 11.75820 1481 ft 13 kts 252°
2026-05-06 13:46 48.34426 11.75782 1482 ft 14 kts 174°
2026-05-06 13:47 48.34353 11.75876 1485 ft 15 kts 112°
2026-05-06 13:47 48.34310 11.76030 1481 ft 17 kts 113°
2026-05-06 13:47 48.34265 11.76188 1484 ft 12 kts 113°
2026-05-06 13:47 48.34259 11.76208 1477 ft 0 kts 113°
2026-05-06 13:48 48.34259 11.76210 1477 ft 0 kts 113°
2026-05-06 13:48 48.34251 11.76234 1482 ft 9 kts 113°
2026-05-06 13:49 48.34196 11.76371 1473 ft 17 kts 151°
2026-05-06 13:49 48.34173 11.76491 1485 ft 13 kts 81°
2026-05-06 13:49 48.34202 11.76835 1482 ft 68 kts 83°
2026-05-06 13:49 48.34284 11.77886 1486 ft 131 kts 83°
2026-05-06 13:50 48.34404 11.79457 1713 ft 158 kts 82°
2026-05-06 13:50 48.34527 11.81103 2409 ft 159 kts 83°
2026-05-06 13:50 48.34640 11.82778 3094 ft 165 kts 85°
2026-05-06 13:50 48.34764 11.84607 3482 ft 187 kts 85°
2026-05-06 13:51 48.34895 11.86650 3942 ft 206 kts 84°
2026-05-06 13:51 48.35051 11.88938 4318 ft 234 kts 84°
2026-05-06 13:51 48.35250 11.91405 5169 ft 241 kts 84°
2026-05-06 13:51 48.35193 11.93938 5981 ft 250 kts 107°
2026-05-06 13:52 48.34533 11.96463 6545 ft 268 kts 116°
2026-05-06 13:52 48.33762 11.99060 7359 ft 275 kts 117°
2026-05-06 13:52 48.32975 12.01718 8246 ft 282 kts 115°
2026-05-06 13:52 48.32602 12.04655 9104 ft 295 kts 91°
2026-05-06 13:53 48.32947 12.07738 9925 ft 304 kts 80°
2026-05-06 13:53 48.33433 12.10956 10289 ft 327 kts 79°
2026-05-06 13:53 48.33962 12.14380 10781 ft 343 kts 80°
2026-05-06 13:53 48.34513 12.17917 11493 ft 351 kts 80°
2026-05-06 13:54 48.35072 12.21516 12278 ft 356 kts 80°
2026-05-06 13:54 48.35637 12.25172 13066 ft 362 kts 80°
2026-05-06 13:54 48.36206 12.28882 13801 ft 367 kts 80°
2026-05-06 13:54 48.36779 12.32646 14497 ft 371 kts 81°
2026-05-06 13:55 48.37353 12.36451 15203 ft 375 kts 81°
2026-05-06 13:55 48.37932 12.40297 15893 ft 379 kts 81°
2026-05-06 13:55 48.38516 12.44190 16590 ft 383 kts 81°
2026-05-06 13:55 48.39103 12.48123 17273 ft 387 kts 82°
2026-05-06 13:56 48.39694 12.52099 17953 ft 391 kts 82°
2026-05-06 13:56 48.40290 12.56108 18588 ft 394 kts 82°
2026-05-06 13:56 48.40890 12.60150 19181 ft 398 kts 82°
2026-05-06 13:56 48.41494 12.64235 19761 ft 402 kts 82°
2026-05-06 13:57 48.42101 12.68359 20361 ft 405 kts 82°
2026-05-06 13:57 48.42704 12.72469 20927 ft 410 kts 82°
2026-05-06 13:57 48.43321 12.76677 21503 ft 414 kts 82°
2026-05-06 13:57 48.43947 12.80926 22079 ft 418 kts 82°
2026-05-06 13:58 48.44578 12.85217 22652 ft 421 kts 82°
2026-05-06 13:58 48.45211 12.89549 23233 ft 425 kts 82°
2026-05-06 13:58 48.45847 12.93920 23705 ft 429 kts 82°
2026-05-06 13:58 48.46702 12.98264 24141 ft 440 kts 69°
2026-05-06 13:59 48.48332 13.02212 24569 ft 450 kts 51°
2026-05-06 13:59 48.50666 13.05377 24992 ft 455 kts 37°
2026-05-06 13:59 48.53189 13.08281 25426 ft 458 kts 37°
2026-05-06 13:59 48.55735 13.11195 25870 ft 461 kts 37°
2026-05-06 14:00 48.58301 13.14133 26282 ft 465 kts 37°
2026-05-06 14:00 48.60882 13.17102 26699 ft 468 kts 37°
2026-05-06 14:00 48.63477 13.20105 27110 ft 472 kts 37°
2026-05-06 14:00 48.66086 13.23138 27527 ft 475 kts 37°
2026-05-06 14:01 48.68711 13.26203 27954 ft 478 kts 37°
2026-05-06 14:01 48.71350 13.29288 28362 ft 481 kts 37°
2026-05-06 14:01 48.74011 13.32400 28768 ft 485 kts 37°
2026-05-06 14:01 48.76674 13.35559 29153 ft 488 kts 40°
2026-05-06 14:02 48.79034 13.39281 29497 ft 492 kts 50°
2026-05-06 14:02 48.81280 13.43212 29882 ft 495 kts 50°
2026-05-06 14:02 48.83533 13.47188 30198 ft 498 kts 50°
2026-05-06 14:02 48.85788 13.51193 30520 ft 500 kts 50°
2026-05-06 14:03 48.88051 13.55227 30829 ft 503 kts 50°
2026-05-06 14:03 48.90349 13.59258 31143 ft 506 kts 49°
2026-05-06 14:03 48.92686 13.63276 31461 ft 508 kts 49°
2026-05-06 14:03 48.95041 13.67278 31939 ft 507 kts 48°
2026-05-06 14:04 48.97391 13.71266 32441 ft 505 kts 48°
2026-05-06 14:04 48.99726 13.75244 32857 ft 504 kts 48°
2026-05-06 14:04 49.02051 13.79234 33277 ft 504 kts 48°
2026-05-06 14:04 49.04370 13.83239 33696 ft 504 kts 48°
2026-05-06 14:05 49.06680 13.87246 34070 ft 503 kts 49°
2026-05-06 14:05 49.08983 13.91252 34476 ft 501 kts 49°
2026-05-06 14:05 49.11277 13.95246 34894 ft 499 kts 49°
2026-05-06 14:05 49.13556 13.99211 35347 ft 495 kts 49°
2026-05-06 14:06 49.15824 14.03151 35775 ft 492 kts 49°
2026-05-06 14:06 49.18079 14.07074 36175 ft 490 kts 49°
2026-05-06 14:06 49.20321 14.10983 36559 ft 488 kts 49°
2026-05-06 14:06 49.22554 14.14884 36749 ft 487 kts 49°
2026-05-06 14:07 49.26967 14.22630 36779 ft 480 kts 49°
2026-05-06 14:07 49.31314 14.30293 36793 ft 480 kts 50°
2026-05-06 14:08 49.35704 14.38029 36779 ft 481 kts 49°
2026-05-06 14:08 49.40092 14.45780 36778 ft 480 kts 49°
2026-05-06 14:09 49.44455 14.53547 36786 ft 480 kts 50°
2026-05-06 14:09 49.48821 14.61313 36786 ft 480 kts 49°
2026-05-06 14:10 49.53189 14.69083 36794 ft 480 kts 49°
2026-05-06 14:10 49.57545 14.76875 36797 ft 480 kts 50°
2026-05-06 14:11 49.61885 14.84682 36803 ft 480 kts 50°
2026-05-06 14:11 49.66227 14.92503 36792 ft 480 kts 50°
2026-05-06 14:12 49.70561 15.00333 36799 ft 480 kts 50°
2026-05-06 14:12 49.74894 15.08173 36775 ft 480 kts 50°
2026-05-06 14:13 49.79220 15.16025 36790 ft 479 kts 50°
2026-05-06 14:13 49.83531 15.23890 36794 ft 479 kts 50°
2026-05-06 14:14 49.87837 15.31765 36810 ft 479 kts 50°
2026-05-06 14:14 49.92147 15.39657 36801 ft 479 kts 50°
2026-05-06 14:15 49.96446 15.47565 36795 ft 479 kts 50°
2026-05-06 14:15 50.00741 15.55490 36792 ft 479 kts 50°
2026-05-06 14:16 50.05034 15.63424 36788 ft 479 kts 50°
2026-05-06 14:16 50.09327 15.71387 36788 ft 479 kts 50°
2026-05-06 14:17 50.13603 15.79347 36771 ft 480 kts 50°
2026-05-06 14:17 50.17852 15.87281 36779 ft 480 kts 50°
2026-05-06 14:18 50.22120 15.95290 36791 ft 480 kts 50°
2026-05-06 14:18 50.26384 16.03317 36796 ft 480 kts 50°
2026-05-06 14:19 50.30653 16.11344 36800 ft 480 kts 50°
2026-05-06 14:19 50.34936 16.19365 36801 ft 480 kts 50°
2026-05-06 14:20 50.39220 16.27391 36804 ft 480 kts 50°
2026-05-06 14:20 50.43491 16.35441 36815 ft 480 kts 50°
2026-05-06 14:21 50.47750 16.43516 36787 ft 480 kts 50°
2026-05-06 14:21 50.52007 16.51607 36792 ft 480 kts 50°
2026-05-06 14:22 50.56264 16.59710 36788 ft 480 kts 50°
2026-05-06 14:22 50.60510 16.67832 36791 ft 481 kts 50°
2026-05-06 14:23 50.64753 16.75966 36794 ft 481 kts 50°
2026-05-06 14:23 50.68277 16.82740 36781 ft 481 kts 50°
2026-05-06 14:24 50.72513 16.90911 36779 ft 481 kts 50°
2026-05-06 14:24 50.76744 16.99093 36782 ft 481 kts 50°
2026-05-06 14:25 50.80974 17.07288 36787 ft 481 kts 50°
2026-05-06 14:25 50.85191 17.15490 36765 ft 480 kts 50°
2026-05-06 14:26 50.89392 17.23696 36782 ft 479 kts 50°
2026-05-06 14:26 50.93581 17.31909 36782 ft 479 kts 51°
2026-05-06 14:27 50.97762 17.40128 36779 ft 478 kts 51°
2026-05-06 14:27 51.01935 17.48348 36784 ft 478 kts 51°
2026-05-06 14:28 51.06094 17.56575 36781 ft 477 kts 51°
2026-05-06 14:28 51.10247 17.64815 36777 ft 477 kts 51°
2026-05-06 14:29 51.14393 17.73060 36775 ft 477 kts 51°
2026-05-06 14:29 51.18530 17.81316 36787 ft 476 kts 51°
2026-05-06 14:30 51.22628 17.89526 36697 ft 477 kts 51°
2026-05-06 14:30 51.24562 17.93817 36173 ft 476 kts 62°
2026-05-06 14:30 51.25822 17.98658 35866 ft 472 kts 76°
2026-05-06 14:31 51.26748 18.03693 35630 ft 473 kts 76°
2026-05-06 14:31 51.27672 18.08736 35374 ft 474 kts 76°
2026-05-06 14:31 51.28594 18.13791 35119 ft 474 kts 76°
2026-05-06 14:31 51.29511 18.18843 34871 ft 473 kts 76°
2026-05-06 14:32 51.30420 18.23886 34625 ft 471 kts 76°
2026-05-06 14:32 51.31324 18.28908 34382 ft 470 kts 76°
2026-05-06 14:32 51.32225 18.33920 34149 ft 468 kts 76°
2026-05-06 14:32 51.33121 18.38916 33919 ft 467 kts 76°
2026-05-06 14:33 51.34015 18.43908 33669 ft 466 kts 77°
2026-05-06 14:33 51.34906 18.48882 33368 ft 464 kts 77°
2026-05-06 14:33 51.35790 18.53822 33092 ft 460 kts 77°
2026-05-06 14:33 51.36666 18.58735 32820 ft 458 kts 77°
2026-05-06 14:34 51.37527 18.63630 32547 ft 456 kts 77°
2026-05-06 14:34 51.38383 18.68517 32280 ft 455 kts 76°
2026-05-06 14:34 51.39608 18.73174 32015 ft 456 kts 60°
2026-05-06 14:34 51.41174 18.77588 31750 ft 454 kts 67°
2026-05-06 14:35 51.42267 18.82302 31494 ft 450 kts 77°
2026-05-06 14:35 51.42984 18.87151 31239 ft 446 kts 82°
2026-05-06 14:35 51.43548 18.92036 30986 ft 444 kts 83°
2026-05-06 14:35 51.44123 18.96895 30739 ft 444 kts 82°
2026-05-06 14:36 51.44790 19.01721 30485 ft 443 kts 79°
2026-05-06 14:36 51.45562 19.06498 30257 ft 442 kts 77°
2026-05-06 14:36 51.46411 19.11234 30012 ft 441 kts 76°
2026-05-06 14:36 51.47298 19.15937 29756 ft 440 kts 76°
2026-05-06 14:37 51.48188 19.20622 29483 ft 438 kts 76°
2026-05-06 14:37 51.49056 19.25292 29194 ft 436 kts 76°
2026-05-06 14:37 51.49898 19.29953 28912 ft 434 kts 77°
2026-05-06 14:37 51.50719 19.34596 28635 ft 432 kts 77°
2026-05-06 14:38 51.51514 19.39165 28361 ft 430 kts 77°
2026-05-06 14:38 51.52310 19.43774 28094 ft 428 kts 77°
2026-05-06 14:38 51.53102 19.48365 27818 ft 426 kts 77°
2026-05-06 14:38 51.53889 19.52920 27493 ft 421 kts 77°
2026-05-06 14:39 51.54673 19.57448 27031 ft 420 kts 77°
2026-05-06 14:39 51.55452 19.61960 26546 ft 418 kts 77°
2026-05-06 14:39 51.56224 19.66455 26077 ft 416 kts 77°
2026-05-06 14:39 51.56992 19.70930 25584 ft 415 kts 77°
2026-05-06 14:40 51.57758 19.75402 25087 ft 415 kts 77°
2026-05-06 14:40 51.58524 19.79875 24562 ft 415 kts 77°
2026-05-06 14:40 51.59290 19.84353 24035 ft 415 kts 77°
2026-05-06 14:40 51.60056 19.88835 23510 ft 416 kts 77°
2026-05-06 14:41 51.60820 19.93318 22939 ft 416 kts 77°
2026-05-06 14:41 51.61579 19.97781 22415 ft 413 kts 77°
2026-05-06 14:41 51.62331 20.02215 21977 ft 409 kts 77°
2026-05-06 14:41 51.63078 20.06629 21508 ft 406 kts 77°
2026-05-06 14:42 51.63818 20.11021 20945 ft 406 kts 77°
2026-05-06 14:42 51.64549 20.15375 20463 ft 403 kts 77°
2026-05-06 14:42 51.65279 20.19739 19929 ft 403 kts 77°
2026-05-06 14:42 51.65998 20.24047 19606 ft 395 kts 77°
2026-05-06 14:43 51.66707 20.28316 19124 ft 394 kts 77°
2026-05-06 14:43 51.67411 20.32567 18663 ft 392 kts 77°
2026-05-06 14:43 51.68110 20.36800 18239 ft 390 kts 77°
2026-05-06 14:43 51.68804 20.41011 17784 ft 388 kts 77°
2026-05-06 14:44 51.69493 20.45198 17313 ft 385 kts 77°
2026-05-06 14:44 51.70177 20.49345 16875 ft 382 kts 77°
2026-05-06 14:44 51.70855 20.53461 16464 ft 378 kts 77°
2026-05-06 14:45 51.72185 20.61580 15685 ft 371 kts 78°
2026-05-06 14:45 51.72826 20.65546 15537 ft 358 kts 78°
2026-05-06 14:45 51.73443 20.69357 15311 ft 346 kts 78°
2026-05-06 14:45 51.74047 20.73082 14928 ft 341 kts 78°
2026-05-06 14:46 51.74636 20.76714 14658 ft 329 kts 78°
2026-05-06 14:46 51.75225 20.80357 13631 ft 343 kts 78°
2026-05-06 14:46 51.75816 20.84098 12523 ft 353 kts 78°
2026-05-06 14:46 51.76232 20.87979 11669 ft 349 kts 93°
2026-05-06 14:47 51.75816 20.91757 10920 ft 339 kts 114°
2026-05-06 14:47 51.74938 20.95267 10138 ft 337 kts 117°
2026-05-06 14:47 51.74022 20.98731 9374 ft 335 kts 117°
2026-05-06 14:47 51.73106 21.02158 8608 ft 331 kts 117°
2026-05-06 14:48 51.72206 21.05548 7878 ft 327 kts 114°
2026-05-06 14:48 51.71821 21.09138 7147 ft 327 kts 89°
2026-05-06 14:48 51.72377 21.12666 6632 ft 325 kts 62°
2026-05-06 14:48 51.73758 21.15414 6467 ft 311 kts 37°
2026-05-06 14:49 51.75627 21.16911 6309 ft 293 kts 12°
2026-05-06 14:49 51.77598 21.17591 5959 ft 288 kts
2026-05-06 14:49 51.79557 21.18172 5588 ft 285 kts
2026-05-06 14:49 51.81506 21.18743 5179 ft 283 kts
2026-05-06 14:50 51.83443 21.19299 4764 ft 282 kts
2026-05-06 14:50 51.85372 21.19867 4374 ft 281 kts
2026-05-06 14:50 51.87287 21.20386 3950 ft 277 kts
2026-05-06 14:50 51.89174 21.20151 3655 ft 266 kts 341°
2026-05-06 14:51 51.90819 21.19068 3526 ft 248 kts 327°
2026-05-06 14:51 51.92305 21.17787 3341 ft 238 kts 327°
2026-05-06 14:51 51.93753 21.16536 3061 ft 235 kts 327°
2026-05-06 14:51 51.95196 21.15287 2996 ft 235 kts 327°
2026-05-06 14:52 51.96640 21.14039 3001 ft 233 kts 327°
2026-05-06 14:52 51.98018 21.12852 2999 ft 216 kts 326°
2026-05-06 14:52 51.99301 21.11744 3001 ft 204 kts 326°
2026-05-06 14:52 52.00534 21.10672 3003 ft 199 kts 326°
2026-05-06 14:53 52.01747 21.09620 3002 ft 197 kts 326°
2026-05-06 14:53 52.02948 21.08577 2987 ft 195 kts 327°
2026-05-06 14:53 52.04119 21.07562 2853 ft 187 kts 327°
2026-05-06 14:53 52.05261 21.06570 2608 ft 185 kts 327°
2026-05-06 14:54 52.06391 21.05636 2393 ft 177 kts 329°
2026-05-06 14:54 52.07434 21.04849 2243 ft 155 kts 330°
2026-05-06 14:54 52.08359 21.04147 2010 ft 143 kts 325°
2026-05-06 14:54 52.09244 21.03343 1782 ft 150 kts 320°
2026-05-06 14:55 52.10133 21.02415 1580 ft 152 kts 318°
2026-05-06 14:55 52.11055 21.01542 1483 ft 154 kts 326°
2026-05-06 14:55 52.11977 21.00781 1250 ft 146 kts 323°
2026-05-06 14:55 52.12859 20.99994 1001 ft 145 kts 325°
2026-05-06 14:56 52.13741 20.99187 814 ft 148 kts 327°
2026-05-06 14:56 52.14643 20.98395 575 ft 145 kts 327°
2026-05-06 14:56 52.15513 20.97653 381 ft 139 kts 323°
2026-05-06 14:56 52.16287 20.96939 338 ft 108 kts 329°
2026-05-06 14:57 52.16789 20.96533 338 ft 44 kts 342°
2026-05-06 14:57 52.17037 20.96519 336 ft 18 kts
2026-05-06 14:57 52.17119 20.96649 336 ft 17 kts 65°
2026-05-06 14:57 52.17161 20.96818 336 ft 15 kts 95°
2026-05-06 14:58 52.17087 20.96904 337 ft 14 kts 151°
2026-05-06 14:58 52.17000 20.96978 337 ft 15 kts 153°
2026-05-06 14:58 52.16908 20.97055 336 ft 12 kts 151°
2026-05-06 14:58 52.16902 20.97149 339 ft 8 kts 74°
2026-05-06 14:59 52.16914 20.97222 339 ft 4 kts 76°
2026-05-06 14:59 52.16915 20.97233 339 ft 0 kts 76°